Location: Lango�lan
(48.1202°N, 3.2340°W)
Time: 21:49:56
(UTC+00:00)

Cosmos 2333 Rocket - Pass Details

Date: 23 October 2019
Orbit: 838 x 864 km, 70.8° (Epoch: 20 November)

Event Time Altitude Azimuth Distance (km) Brightness Sun altitude
Exits shadow 05:21:59 14° 307° (NW) 2,203 3.9 -14.3°
Maximum altitude 05:23:35 16° 325° (NW) 2,116 3.9 -14.0°
Drops below altitude 10° 05:26:55 10° 2° (N) 2,495 4.7 -13.5°
Sets 05:30:31 0° 24° (NNE) 3,440 5.7 -12.9°
